Location: Notre Dame Regional High School Observatory
(37.3056°N, 89.6097°W)
Time: 22:31:06
(UTC-05:00)

Okean-O - Visible Passes

Search period start: 27 June 2017 00:00
Search period end: 07 July 2017 00:00
Orbit: 639 x 642 km, 98.2° (Epoch: 26 June)

Date Brightness Start Highest point End Pass type
(mag) Time Alt. Az. Time Alt. Az. Time Alt. Az.
27 Jun 5.5 04:37:20 10° ENE 04:39:19 13° E 04:41:19 10° ESE visible
28 Jun 5.0 04:59:30 10° NE 05:03:03 23° E 05:06:35 10° SSE visible
01 Jul 5.6 04:35:21 10° ENE 04:37:01 12° E 04:38:40 10° ESE visible
02 Jul 5.1 04:57:19 10° NE 05:00:46 22° E 05:04:11 10° SE visible
05 Jul 5.6 04:33:30 10° ENE 04:34:43 11° E 04:35:56 10° ESE visible
06 Jul 5.2 04:55:09 10° NE 04:58:28 20° E 05:01:45 10° SE visible
